Big Bend, CA Past Weather

Last 30 Days

High: 45ºf @12:54 AM    Low: 39ºf @8:54 AM     Approx. Precipitation / Rain Total: in.
Time (PST)Temp. (ºf)Humidity (%)Dew Point (ºf)Barometer (inHG)Wind Speed (mph)Wind DirectionWind Gust (mph)1hr. Precip / Rain Total (in.)Snow Depth
8:54 AM398434.58-3.48se10.43--
7:54 AM408335.26-3.48se13.03--
6:54 AM408636.16-6.95se13.9--
5:54 AM428738.42-5.21se12.17--
4:54 AM428838.71-5.21se12.17--
3:54 AM439040.27-5.21se11.3--
2:54 AM449141.54-5.21se13.03--
1:54 AM448840.68-4.34se13.03--
12:54 AM458741.37-6.95ese13.9--
High: 59ºf @2:54 PM    Low: 28ºf @6:54 AM     Approx. Precipitation / Rain Total: in.
Time (PST)Temp. (ºf)Humidity (%)Dew Point (ºf)Barometer (inHG)Wind Speed (mph)Wind DirectionWind Gust (mph)1hr. Precip / Rain Total (in.)Snow Depth
11:54 PM458340.15-5.21ese11.3--
10:54 PM457938.89-3.48sse10.43--
9:54 PM389235.89---1.74--
8:54 PM428638.12---2.61--
7:54 PM476836.99-0.87sse4.34--
6:54 PM506036.67-2.61ese8.69--
5:54 PM525435.88-3.48se7.82--
4:54 PM554835.67-4.34sse12.17--
3:54 PM594135.33-2.61sse9.56--
2:54 PM594135.33-5.21ese13.03--
1:54 PM594235.94-5.21se12.17--
12:54 PM594336.53-6.08se12.17--
11:54 AM574435.3-4.34se14.77--
10:54 AM544935.28-6.95se14.77--
9:54 AM525737.24-1.74sse10.43--
8:54 AM457136.17---1.74--
7:54 AM3310033---3.48--
6:54 AM2810028-0.87n2.61--
5:54 AM2910029-1.74ne2.61--
4:54 AM2910029---2.61--
3:54 AM3010030-1.74ne3.48--
2:54 AM3010030-0.87n3.48--
1:54 AM309929.75-0.87nne2.61--
12:54 AM329630.99-1.74ne2.61--
High: 63ºf @1:54 PM    Low: 29ºf @6:54 AM     Approx. Precipitation / Rain Total: in.
Time (PST)Temp. (ºf)Humidity (%)Dew Point (ºf)Barometer (inHG)Wind Speed (mph)Wind DirectionWind Gust (mph)1hr. Precip / Rain Total (in.)Snow Depth
11:54 PM329430.47---3.48--
10:54 PM349332.19-0.87ne2.61--
9:54 PM359333.18---3.48--
8:54 PM388634.19-0.87nne2.61--
7:54 PM417935-0.87ene2.61--
6:54 PM466434.51---4.34--
5:54 PM544231.43-3.48ese8.69--
4:54 PM583228.31-3.48se8.69--
3:54 PM603230.06-2.61sse9.56--
2:54 PM612625.87-2.61sse6.95--
1:54 PM632930.24-1.74sse8.69--
12:54 PM623030.21-0.87sw5.21--
11:54 AM603834.32-1.74wnw5.21--
10:54 AM564132.64-1.74se4.34--
9:54 AM515334.48-1.74wnw6.95--
8:54 AM427835.65-0.87nne1.74--
7:54 AM339631.99---2.61--
6:54 AM2910029---3.48--
5:54 AM2910029-0.87-4.34--
4:54 AM299928.75---4.34--
3:54 AM309829.5-0.87ne3.48--
2:54 AM329831.5-1.74nne2.61--
1:54 AM329731.25-1.74nne3.48--
12:54 AM329831.5-0.87n3.48--
High: 60ºf @1:54 PM    Low: 28ºf @5:54 AM     Approx. Precipitation / Rain Total: in.
Time (PST)Temp. (ºf)Humidity (%)Dew Point (ºf)Barometer (inHG)Wind Speed (mph)Wind DirectionWind Gust (mph)1hr. Precip / Rain Total (in.)Snow Depth
11:54 PM339631.99-2.61ne4.34--
10:54 PM349432.46-0.87wnw4.34--
9:54 PM359032.37-0.87ne3.48--
8:54 PM378934.06-2.61nne4.34--
7:54 PM408335.26-1.74ne3.48--
6:54 PM447335.91-0.87ne5.21--
5:54 PM486436.41-1.74nw7.82--
4:54 PM525636.79-1.74nw6.08--
3:54 PM564836.59-2.61wnw7.82--
2:54 PM574736.97-2.61nw9.56--
1:54 PM603733.65-0.87nw6.95--
12:54 PM593833.43-1.74nw6.08--
11:54 AM574133.54-2.61w6.95--
10:54 AM544633.69---4.34--
9:54 AM495633.99-1.74wnw4.34--
8:54 AM407633.06-0.87nw1.74--
7:54 AM319830.5-0.87n2.61--
6:54 AM2810028-0.87nne3.48--
5:54 AM2810028-1.74nne3.48--
4:54 AM2810028-1.74ne3.48--
3:54 AM2910029-0.87nne4.34--
2:54 AM2910029-2.61ne4.34--
1:54 AM3010030-0.87ne3.48--
12:54 AM3010030-2.61nne3.48--
High: 50ºf @3:54 PM    Low: 30ºf @11:54 PM     Approx. Precipitation / Rain Total: in.
Time (PST)Temp. (ºf)Humidity (%)Dew Point (ºf)Barometer (inHG)Wind Speed (mph)Wind DirectionWind Gust (mph)1hr. Precip / Rain Total (in.)Snow Depth
11:54 PM3010030-0.87ene3.48--
10:54 PM3110031-0.87ne2.61--
9:54 PM3210032-0.87ne4.34--
8:54 PM339932.75---2.61--
7:54 PM369735.23---1.74--
5:54 PM447636.93-1.74ssw6.08--
4:54 PM476134.26-2.61s9.56--
3:54 PM505434.02-2.61sse8.69--
2:54 PM495533.54-2.61s9.56--
1:54 PM496136.14-3.48sse6.95--
12:54 PM476335.07-2.61ssw9.56--
11:54 AM476234.66-3.48sse9.56--
10:54 AM476937.36-2.61s10.43--
9:54 AM448740.38-2.61s6.08--
8:54 AM3910039-1.74ssw6.08--
7:54 AM3610036-0.87s4.34--
6:54 AM3510035---3.48--
5:54 AM3610036-0.87ssw4.34--
4:54 AM3610036-0.87s5.21--
3:54 AM3610036-0.87s4.34--
2:54 AM3710037-0.87sse3.48--
1:54 AM3710037---6.08--
12:54 AM3810038-0.87s6.08--
High: 46ºf @1:54 PM    Low: 35ºf @2:54 AM     Approx. Precipitation / Rain Total: in.
Time (PST)Temp. (ºf)Humidity (%)Dew Point (ºf)Barometer (inHG)Wind Speed (mph)Wind DirectionWind Gust (mph)1hr. Precip / Rain Total (in.)Snow Depth
11:54 PM3810038-1.74s4.34--
10:54 PM389837.49---5.21--
9:54 PM399236.88-2.61se6.95--
8:54 PM399236.88-3.48ese7.82--
7:54 PM389636.96-0.87ssw6.08--
6:54 PM398936.04-3.48se7.82--
5:54 PM399637.96-2.61se12.17--
4:54 PM428236.91-3.48se12.17--
3:54 PM427835.65-6.08se12.17--
2:54 PM447536.59-4.34se11.3--
1:54 PM466936.41-4.34sse12.17--
12:54 PM447837.59-6.08se13.9--
11:54 AM428036.29-6.08se11.3--
10:54 AM428337.22-5.21se13.9--
9:54 AM438037.26-4.34se9.56--
8:54 AM398835.75-4.34ese8.69--
7:54 AM379535.7-3.48ese8.69--
6:54 AM379635.97-5.21ese10.43--
5:54 AM3710037-5.21ese9.56--
4:54 AM3610036-0.87s3.48--
3:54 AM3510035---4.34--
2:54 AM3510035-0.87nnw2.61--
1:54 AM3610036---7.82--
12:54 AM379535.7-5.21ese11.3--
High: 39ºf @7:54 AM    Low: 37ºf @3:54 PM     Approx. Precipitation / Rain Total: in.
Time (PST)Temp. (ºf)Humidity (%)Dew Point (ºf)Barometer (inHG)Wind Speed (mph)Wind DirectionWind Gust (mph)1hr. Precip / Rain Total (in.)Snow Depth
11:54 PM379635.97-6.08ese11.3--
10:54 PM379635.97-5.21ese12.17--
9:54 PM379635.97-4.34ese12.17--
8:54 PM379635.97-2.61se13.9--
7:54 PM379535.7-6.95ese13.03--
6:54 PM379535.7-5.21se13.9--
5:54 PM389536.7-7.82ese17.38--
4:54 PM389436.43-8.69ese19.99--
3:54 PM379635.97-7.82ese15.64--
2:54 PM389737.23-6.08se16.51--
1:54 PM399838.48-3.48se11.3--
12:54 PM399838.48-6.08ese11.3--
11:54 AM3810038-0.87s5.21--
10:54 AM389837.49-3.48ese8.69--
9:54 AM389536.7-4.34ese11.3--
8:54 AM389636.96-6.08ese13.9--
7:54 AM399236.88-6.08ese12.17--
6:54 AM398936.04-6.08ese13.03--
5:54 AM389436.43-6.08e11.3--
4:54 AM379335.17-5.21e13.03--
3:54 AM389336.16-6.08ese11.3--
2:54 AM379736.23-6.08e10.43--
1:54 AM379936.75-0.87sse10.43--
12:54 AM3910039-5.21ese11.3--
High: 42ºf @6:54 PM    Low: 33ºf @11:54 AM     Approx. Precipitation / Rain Total: in.
Time (PST)Temp. (ºf)Humidity (%)Dew Point (ºf)Barometer (inHG)Wind Speed (mph)Wind DirectionWind Gust (mph)1hr. Precip / Rain Total (in.)Snow Depth
11:54 PM3910039-5.21se13.9--
10:54 PM399938.74-0.87sw14.77--
9:54 PM3910039---4.34--
8:54 PM4010040-1.74se7.82--
7:54 PM419940.74-1.74s14.77--
6:54 PM429741.21-6.08se17.38--
5:54 PM419940.74-3.48se16.51--
4:54 PM4010040-2.61s9.56--
3:54 PM3510035---4.34--
2:54 PM3410034---6.95--
1:54 PM3310033-2.61s7.82--
12:54 PM3310033-2.61s8.69--
11:54 AM3310033-3.48ssw12.17--
10:54 AM3510035-1.74s10.43--
9:54 AM389536.7-5.21se14.77--
8:54 AM3510035-1.74s8.69--
7:54 AM3410034-1.74s6.95--
6:54 AM3410034-2.61ssw6.95--
5:54 AM3410034-2.61ssw6.95--
4:54 AM3310033-1.74s6.08--
3:54 AM3310033-1.74s6.95--
2:54 AM3410034-1.74s6.95--
1:54 AM3410034-2.61ssw6.95--
12:54 AM3510035-1.74ssw6.95--
High: 43ºf @3:54 PM    Low: 33ºf @12:54 AM     Approx. Precipitation / Rain Total: in.
Time (PST)Temp. (ºf)Humidity (%)Dew Point (ºf)Barometer (inHG)Wind Speed (mph)Wind DirectionWind Gust (mph)1hr. Precip / Rain Total (in.)Snow Depth
11:54 PM3410034-1.74ssw7.82--
10:54 PM3410034-2.61sw6.95--
9:54 PM3510035-1.74sw6.95--
8:54 PM3610036-1.74s6.08--
7:54 PM3710037-1.74sse8.69--
6:54 PM399537.69-2.61s13.9--
5:54 PM409839.48-3.48sse13.9--
4:54 PM428939-5.21se13.9--
3:54 PM438538.8-6.08se13.9--
2:54 PM419539.68-6.08ese14.77--
1:54 PM418837.72-7.82ese15.64--
12:54 PM429239.85-3.48s12.17--
11:54 AM438839.69-6.08se13.9--
10:54 AM419038.3-6.08se12.17--
9:54 AM399938.74-5.21se12.17--
8:54 AM399637.96-4.34se13.03--
7:54 AM389336.16-7.82ese13.9--
6:54 AM389536.7-6.95ese11.3--
5:54 AM399236.88-6.08e12.17--
4:54 AM389636.96-6.08ese13.03--
3:54 AM389636.96-5.21se12.17--
2:54 AM389636.96-6.08ese13.03--
1:54 AM3810038-5.21ese12.17--
12:54 AM3310033-0.87ssw3.48--
High: 45ºf @9:54 AM    Low: 33ºf @9:54 PM     Approx. Precipitation / Rain Total: in.
Time (PST)Temp. (ºf)Humidity (%)Dew Point (ºf)Barometer (inHG)Wind Speed (mph)Wind DirectionWind Gust (mph)1hr. Precip / Rain Total (in.)Snow Depth
11:54 PM3310033---5.21--
10:54 PM3310033-0.87s5.21--
9:54 PM3310033-1.74sw8.69--
8:54 PM379435.44-6.08se12.17--
7:54 PM3610036-2.61sse12.17--
6:54 PM369835.49-2.61sse14.77--
5:54 PM369634.97-6.08se13.9--
4:54 PM379635.97-7.82se13.9--
3:54 PM399337.15-6.08se13.9--
2:54 PM409939.74-3.48sse7.82--
1:54 PM409839.48-2.61se14.77--
12:54 PM429039.28-4.34sse14.77--
11:54 AM428537.82-5.21se19.12--
10:54 AM447335.91-6.95se18.25--
9:54 AM457336.87-4.34se11.3--
8:54 AM428738.42-2.61sse11.3--
7:54 AM418837.72-3.48ssw12.17--
6:54 AM428136.6-1.74se13.03--
5:54 AM419439.41-2.61se6.95--
4:54 AM419238.86-1.74sse6.08--
3:54 AM429039.28-2.61se8.69--
2:54 AM409939.74-0.87ssw5.21--
1:54 AM419339.13-0.87ssw5.21--
12:54 AM429340.12-0.87sse6.95--
High: 47ºf @2:54 PM    Low: 38ºf @2:54 AM     Approx. Precipitation / Rain Total: in.
Time (PST)Temp. (ºf)Humidity (%)Dew Point (ºf)Barometer (inHG)Wind Speed (mph)Wind DirectionWind Gust (mph)1hr. Precip / Rain Total (in.)Snow Depth
11:54 PM429540.67-1.74s6.95--
10:54 PM429239.85-1.74sse6.08--
9:54 PM429340.12---6.08--
8:54 PM439240.84-1.74s4.34--
7:54 PM429540.67-1.74sse6.08--
6:54 PM439140.56-2.61ssw8.69--
5:54 PM457938.89-1.74ssw7.82--
4:54 PM467839.53-2.61ssw7.82--
3:54 PM478141.48-2.61ssw8.69--
2:54 PM478342.11-2.61ssw9.56--
1:54 PM478041.16-2.61ssw9.56--
12:54 PM478542.73-2.61ssw8.69--
11:54 AM449241.83-3.48ssw8.69--
10:54 AM439641.94-1.74s6.95--
9:54 AM4210042-1.74ssw6.95--
8:54 AM4010040-1.74ssw4.34--
7:54 AM3910039-2.61ssw5.21--
6:54 AM3810038-0.87sse6.95--
5:54 AM3810038-1.74se3.48--
4:54 AM3810038-0.87s3.48--
3:54 AM3810038-0.87sse4.34--
2:54 AM3810038---3.48--
1:54 AM3810038---3.48--
12:54 AM3810038---3.48--
High: 43ºf @3:54 PM    Low: 35ºf @12:54 AM     Approx. Precipitation / Rain Total: in.
Time (PST)Temp. (ºf)Humidity (%)Dew Point (ºf)Barometer (inHG)Wind Speed (mph)Wind DirectionWind Gust (mph)1hr. Precip / Rain Total (in.)Snow Depth
11:54 PM3910039---0.87--
10:54 PM3910039---2.61--
8:54 PM3910039---1.74--
7:54 PM409739.22---6.08--
6:54 PM419238.86-3.48ese10.43--
5:54 PM418938.01-4.34se10.43--
4:54 PM428537.82-4.34se12.17--
3:54 PM438338.2-5.21ese13.9--
2:54 PM438438.5-6.95ese13.9--
1:54 PM438338.2-6.95se15.64--
12:54 PM439040.27-6.08se13.9--
11:54 AM428638.12-5.21se14.77--
10:54 AM418837.72-6.95se13.03--
9:54 AM389536.7-6.95se14.77--
8:54 AM389737.23-6.08ese13.03--
7:54 AM379635.97-6.08ese12.17--
6:54 AM379736.23-6.95ese12.17--
5:54 AM379736.23-6.95ese12.17--
4:54 AM379736.23-6.95ese13.03--
3:54 AM379535.7-6.95ese12.17--
2:54 AM379635.97-5.21ese12.17--
1:54 AM369935.75-4.34ese9.56--
12:54 AM3510035-0.87ssw6.95--
High: 40ºf @1:54 AM    Low: 37ºf @10:54 AM     Approx. Precipitation / Rain Total: in.
Time (PST)Temp. (ºf)Humidity (%)Dew Point (ºf)Barometer (inHG)Wind Speed (mph)Wind DirectionWind Gust (mph)1hr. Precip / Rain Total (in.)Snow Depth
11:54 PM379736.23-2.61e11.3--
10:54 PM379635.97-6.08ese14.77--
9:54 PM379736.23-7.82ese13.03--
8:54 PM379635.97-6.08se13.9--
7:54 PM379736.23-6.08ese13.03--
6:54 PM379635.97-6.08ese12.17--
5:54 PM389336.16-5.21ese11.3--
4:54 PM399036.32-5.21ese11.3--
3:54 PM389436.43-5.21ese11.3--
2:54 PM389737.23-4.34se15.64--
1:54 PM389636.96-6.95ese18.25--
12:54 PM379535.7-6.95e14.77--
11:54 AM379635.97-7.82ese15.64--
10:54 AM379535.7-8.69ese16.51--
9:54 AM389536.7-8.69ese15.64--
8:54 AM389336.16-8.69ese17.38--
7:54 AM379635.97-4.34sse10.43--
6:54 AM379535.7-7.82ese14.77--
5:54 AM379535.7-6.08ese11.3--
4:54 AM389536.7-5.21se10.43--
3:54 AM389436.43-2.61se10.43--
2:54 AM399537.69-3.48se6.95--
1:54 AM408435.56-3.48se11.3--
12:54 AM399036.32-3.48se10.43--
High: 51ºf @1:54 PM    Low: 27ºf @2:54 AM     Approx. Precipitation / Rain Total: in.
Time (PST)Temp. (ºf)Humidity (%)Dew Point (ºf)Barometer (inHG)Wind Speed (mph)Wind DirectionWind Gust (mph)1hr. Precip / Rain Total (in.)Snow Depth
11:54 PM408836.74-5.21se11.3--
10:54 PM408937.02-5.21se11.3--
9:54 PM408937.02-4.34ese8.69--
8:54 PM398835.75-4.34se9.56--
7:54 PM408736.45-3.48se10.43--
6:54 PM408335.26-5.21ese13.03--
5:54 PM427534.66-6.08se11.3--
4:54 PM446733.76-4.34se10.43--
3:54 PM485432.16-3.48sse11.3--
2:54 PM475431.23-3.48sse10.43--
1:54 PM514832.01-5.21se11.3--
12:54 PM485833.94-5.21se14.77--
11:54 AM476033.84-3.48se9.56--
10:54 AM466233.72-2.61sse6.95--
9:54 AM417834.68-1.74ssw3.48--
8:54 AM3510035------
7:54 AM3210032---0.87--
6:54 AM3110031---0.87--
5:54 AM2910029---1.74--
4:54 AM2810028---2.61--
3:54 AM2810028---1.74--
2:54 AM2710027---2.61--
1:54 AM2810028---1.74--
12:54 AM2910029-0.87nne2.61--
High: 56ºf @1:54 PM    Low: 27ºf @1:54 AM     Approx. Precipitation / Rain Total: in.
Time (PST)Temp. (ºf)Humidity (%)Dew Point (ºf)Barometer (inHG)Wind Speed (mph)Wind DirectionWind Gust (mph)1hr. Precip / Rain Total (in.)Snow Depth
11:54 PM2910029---2.61--
10:54 PM309929.75---2.61--
9:54 PM319529.74---2.61--
8:54 PM349432.46---0.87--
7:54 PM388433.6---8.69--
6:54 PM427434.32-4.34ese9.56--
5:54 PM447135.21-2.61se10.43--
4:54 PM476535.85-3.48se10.43--
3:54 PM505434.02-2.61sse11.3--
2:54 PM534733.32-4.34se10.43--
1:54 PM564233.24-1.74nne6.08--
12:54 PM544834.76-3.48wnw8.69--
11:54 AM514832.01-0.87ssw4.34--
10:54 AM456935.45---6.95--
9:54 AM407934.02-1.74wnw6.95--
8:54 AM3310033---2.61--
7:54 AM2910029-0.87ne2.61--
6:54 AM2810028-0.87n2.61--
5:54 AM2810028-0.87nne3.48--
4:54 AM2810028-1.74ne2.61--
3:54 AM2810028-1.74ne3.48--
2:54 AM2710027-0.87nnw2.61--
1:54 AM2710027-0.87nne2.61--
12:54 AM2810028---1.74--
High: 51ºf @1:54 PM    Low: 26ºf @7:54 AM     Approx. Precipitation / Rain Total: in.
Time (PST)Temp. (ºf)Humidity (%)Dew Point (ºf)Barometer (inHG)Wind Speed (mph)Wind DirectionWind Gust (mph)1hr. Precip / Rain Total (in.)Snow Depth
11:54 PM2910029-0.87nne2.61--
10:54 PM2910029-1.74nne2.61--
9:54 PM299828.51-0.87nne3.48--
8:54 PM319730.25-0.87ne2.61--
7:54 PM339130.67-0.87nne2.61--
6:54 PM378232.03-1.74ne3.48--
5:54 PM446332.23---6.95--
4:54 PM485331.69-1.74sse6.08--
3:54 PM504831.09-2.61sse6.08--
2:54 PM504630.04-1.74se7.82--
1:54 PM514329.3-1.74s8.69--
12:54 PM504127.24-3.48ssw10.43--
11:54 AM483924.24-3.48s9.56--
10:54 AM464123.63-3.48sse7.82--
9:54 AM416128.6-0.87ssw6.08--
8:54 AM339331.2---1.74--
7:54 AM2610026---2.61--
6:54 AM2610026-0.87ne1.74--
5:54 AM2710027-1.74ne2.61--
4:54 AM2710027---2.61--
3:54 AM2710027---2.61--
2:54 AM2810028-0.87ne3.48--
1:54 AM2810028---3.48--
12:54 AM299728.26-0.87nne5.21--
High: 52ºf @1:54 PM    Low: 30ºf @10:54 PM     Approx. Precipitation / Rain Total: in.
Time (PST)Temp. (ºf)Humidity (%)Dew Point (ºf)Barometer (inHG)Wind Speed (mph)Wind DirectionWind Gust (mph)1hr. Precip / Rain Total (in.)Snow Depth
11:54 PM309829.5-1.74nne3.48--
10:54 PM309629-1.74ne5.21--
9:54 PM319529.74-1.74ne3.48--
8:54 PM329430.47-0.87ene3.48--
7:54 PM339230.93---3.48--
6:54 PM378532.92-0.87nne2.61--
5:54 PM427032.94---4.34--
4:54 PM466032.9-1.74w5.21--
3:54 PM495433.09-1.74wnw6.08--
2:54 PM504931.6-2.61nnw5.21--
1:54 PM524732.4-1.74sw6.95--
12:54 PM505032.1-1.74n5.21--
11:54 AM485733.5-0.87w6.95--
10:54 AM446633.38-1.74wsw8.69--
9:54 AM406729.94-1.74nw6.95--
8:54 AM397230.75-4.34n10.43--
7:54 AM358230.07-3.48n8.69--
6:54 AM348429.68-0.87n6.95--
5:54 AM358230.07-0.87nw6.08--
4:54 AM357929.16-2.61nne9.56--
3:54 AM338829.84-0.87nne5.21--
2:54 AM338729.56---2.61--
1:54 AM357929.16-1.74nnw8.69--
12:54 AM347928.18-1.74nnw8.69--
High: 41ºf @10:54 AM    Low: 26ºf @2:54 AM     Approx. Precipitation / Rain Total: in.
Time (PST)Temp. (ºf)Humidity (%)Dew Point (ºf)Barometer (inHG)Wind Speed (mph)Wind DirectionWind Gust (mph)1hr. Precip / Rain Total (in.)Snow Depth
11:54 PM348028.49-0.87ene5.21--
10:54 PM357929.16-0.87s7.82--
9:54 PM367127.52-1.74nne12.17--
8:54 PM357728.53-1.74nnw5.21--
7:54 PM367127.52-1.74nw14.77--
6:54 PM367227.86-3.48wnw13.03--
5:54 PM367027.18-3.48nw15.64--
4:54 PM376526.35-4.34nw17.38--
3:54 PM396728.99-3.48nw18.25--
2:54 PM396628.62-3.48nw13.9--
1:54 PM396528.25-3.48nw12.17--
12:54 PM396528.25-3.48nw13.9--
11:54 AM405625.59-3.48nnw14.77--
10:54 AM414822.83-3.48wnw10.43--
9:54 AM397230.75-1.74wnw6.95--
8:54 AM338629.28-1.74wnw6.08--
7:54 AM309428.49---4.34--
6:54 AM309428.49---3.48--
5:54 AM2810028---3.48--
4:54 AM2710027---2.61--
3:54 AM2710027---1.74--
2:54 AM2610026---2.61--
1:54 AM2710027-0.87nne1.74--
12:54 AM2810028---2.61--
High: 44ºf @12:54 PM    Low: 28ºf @8:54 PM     Approx. Precipitation / Rain Total: in.
Time (PST)Temp. (ºf)Humidity (%)Dew Point (ºf)Barometer (inHG)Wind Speed (mph)Wind DirectionWind Gust (mph)1hr. Precip / Rain Total (in.)Snow Depth
11:54 PM289927.76-0.87n2.61--
10:54 PM299728.26-0.87e3.48--
9:54 PM289627.01-0.87ene3.48--
8:54 PM289827.51-0.87nne2.61--
7:54 PM299527.75-0.87nne3.48--
6:54 PM309227.96---2.61--
5:54 PM347627.24-0.87n5.21--
4:54 PM396227.1-1.74wnw9.56--
3:54 PM395725.07-2.61wnw7.82--
2:54 PM405324.27-2.61wnw10.43--
1:54 PM435427.51-3.48nw11.3--
12:54 PM445127.05-3.48wnw11.3--
11:54 AM435929.66-3.48nw12.17--
10:54 AM416831.26-2.61wnw10.43--
9:54 AM387530.79-3.48nw9.56--
8:54 AM397030.06-2.61n8.69--
7:54 AM339130.67-0.87wnw5.21--
6:54 AM338228.12-1.74nw6.95--
5:54 AM338930.12-1.74n5.21--
4:54 AM338930.12-0.87nw6.08--
3:54 AM309729.25-1.74n5.21--
2:54 AM309528.74---4.34--
1:54 AM319429.48-0.87nne3.48--
12:54 AM328828.86---7.82--
High: 37ºf @2:54 PM    Low: 29ºf @2:54 AM     Approx. Precipitation / Rain Total: in.
Time (PST)Temp. (ºf)Humidity (%)Dew Point (ºf)Barometer (inHG)Wind Speed (mph)Wind DirectionWind Gust (mph)1hr. Precip / Rain Total (in.)Snow Depth
11:54 PM348429.68-1.74nnw7.82--
10:54 PM338829.84-2.61nnw7.82--
9:54 PM339230.93-2.61n8.69--
8:54 PM349532.72-2.61n7.82--
7:54 PM349432.46-0.87nw7.82--
6:54 PM349532.72-1.74n6.08--
5:54 PM349833.5-0.87nw6.08--
4:54 PM369033.36-0.87n5.21--
3:54 PM369434.44-0.87ssw4.34--
2:54 PM379435.44-0.87ssw5.21--
1:54 PM369534.71-0.87ssw4.34--
12:54 PM359834.49---3.48--
11:54 AM349432.46-0.87ssw7.82--
10:54 AM369033.36-2.61sse8.69--
9:54 AM359232.92-2.61se6.08--
8:54 AM3210032---2.61--
7:54 AM3110031-0.87s3.48--
6:54 AM329831.5-0.87s4.34--
5:54 AM319630---3.48--
4:54 AM3010030-0.87sse2.61--
3:54 AM309929.75-0.87ene2.61--
2:54 AM2910029---2.61--
1:54 AM299928.75---3.48--
12:54 AM299628.01-0.87nne2.61--
High: 47ºf @1:54 PM    Low: 30ºf @11:54 PM     Approx. Precipitation / Rain Total: in.
Time (PST)Temp. (ºf)Humidity (%)Dew Point (ºf)Barometer (inHG)Wind Speed (mph)Wind DirectionWind Gust (mph)1hr. Precip / Rain Total (in.)Snow Depth
11:54 PM309829.5---3.48--
10:54 PM309428.49---6.95--
9:54 PM338528.99-1.74nne6.95--
8:54 PM348329.39-0.87ene6.95--
7:54 PM377931.1-1.74wnw8.69--
6:54 PM397933.05-0.87wnw7.82--
5:54 PM387731.44-0.87nw7.82--
4:54 PM416630.53-1.74wnw9.56--
3:54 PM436130.48-2.61nnw10.43--
2:54 PM455730.69-4.34nne13.03--
1:54 PM475632.13-4.34wnw10.43--
12:54 PM466836.04-3.48nw11.3--
11:54 AM447636.93-2.61nnw9.56--
10:54 AM418837.72-1.74nnw7.82--
9:54 AM3910039-0.87wnw5.21--
8:54 AM3410034---1.74--
7:54 AM3110031---2.61--
6:54 AM3210032---1.74--
5:54 AM3210032------
4:54 AM3210032---1.74--
3:54 AM3310033---3.48--
2:54 AM3210032---2.61--
1:54 AM3210032---3.48--
12:54 AM3210032---2.61--
High: 40ºf @1:54 AM    Low: 32ºf @11:54 PM     Approx. Precipitation / Rain Total: in.
Time (PST)Temp. (ºf)Humidity (%)Dew Point (ºf)Barometer (inHG)Wind Speed (mph)Wind DirectionWind Gust (mph)1hr. Precip / Rain Total (in.)Snow Depth
11:54 PM3210032---5.21--
10:54 PM3310033---3.48--
9:54 PM3310033-0.87sw6.08--
8:54 PM3410034-1.74ssw6.95--
7:54 PM3510035-1.74s6.95--
6:54 PM3410034---11.3--
5:54 PM359934.75-6.08e13.03--
4:54 PM369735.23-4.34ese9.56--
3:54 PM389937.74-3.48se9.56--
2:54 PM389737.23-4.34se13.9--
1:54 PM399337.15-6.08se13.9--
12:54 PM399437.42-6.08se16.51--
11:54 AM399337.15-9.56se19.12--
10:54 AM399437.42-9.56ese18.25--
9:54 AM389336.16-9.56se21.72--
8:54 AM389436.43-10.43se21.72--
7:54 AM389436.43-8.69se20.86--
6:54 AM389536.7-6.95se22.59--
5:54 AM389636.96-7.82se19.12--
4:54 AM389536.7-7.82se18.25--
3:54 AM399337.15-7.82se24.33--
2:54 AM409338.14-9.56se21.72--
1:54 AM409538.69-8.69se21.72--
12:54 AM399437.42-10.43se22.59--
High: 38ºf @11:54 PM    Low: 28ºf @12:54 AM     Approx. Precipitation / Rain Total: in.
Time (PST)Temp. (ºf)Humidity (%)Dew Point (ºf)Barometer (inHG)Wind Speed (mph)Wind DirectionWind Gust (mph)1hr. Precip / Rain Total (in.)Snow Depth
11:54 PM389536.7-12.17se19.99--
10:54 PM379535.7-7.82se22.59--
9:54 PM379736.23-4.34sse26.07--
8:54 PM369935.75-3.48s14.77--
7:54 PM359934.75-4.34s15.64--
6:54 PM3610036-4.34s14.77--
5:54 PM3510035-3.48s12.17--
4:54 PM3510035-2.61s13.03--
3:54 PM3410034-2.61s9.56--
2:54 PM349833.5-2.61ssw9.56--
1:54 PM349933.75-2.61s11.3--
12:54 PM3410034-3.48sse12.17--
11:54 AM3310033-4.34sse13.03--
10:54 AM3210032-3.48sse9.56--
9:54 AM329931.75-3.48ssw12.17--
8:54 AM329931.75-3.48ssw9.56--
7:54 AM329630.99-3.48sse8.69--
6:54 AM319930.75-2.61s12.17--
5:54 AM328628.3-6.08ssw13.9--
4:54 AM337726.59-0.87sse6.08--
3:54 AM337224.98-1.74ssw6.95--
2:54 AM327926.24-0.87sse8.69--
1:54 AM318426.74-2.61s7.82--
12:54 AM289827.51-0.87ne5.21--
High: 39ºf @12:54 PM    Low: 28ºf @11:54 PM     Approx. Precipitation / Rain Total: in.
Time (PST)Temp. (ºf)Humidity (%)Dew Point (ºf)Barometer (inHG)Wind Speed (mph)Wind DirectionWind Gust (mph)1hr. Precip / Rain Total (in.)Snow Depth
11:54 PM2810028-1.74nne5.21--
10:54 PM2910029-3.48ese5.21--
9:54 PM2910029-0.87sse6.08--
8:54 PM2910029-1.74nne3.48--
7:54 PM3110031-0.87se3.48--
6:54 PM329931.75---4.34--
5:54 PM349131.65-0.87sse6.08--
4:54 PM377730.47-2.61s10.43--
3:54 PM387731.44-4.34se9.56--
2:54 PM368933.08-2.61s10.43--
1:54 PM359333.18-2.61s12.17--
12:54 PM396728.99-4.34se12.17--
11:54 AM378232.03-6.95se13.9--
10:54 AM349332.19-2.61sse6.95--
9:54 AM349231.92-0.87s5.21--
8:54 AM338930.12-0.87ssw4.34--
7:54 AM3110031-0.87s4.34--
6:54 AM319529.74-0.87se6.95--
5:54 AM319429.48-2.61se6.08--
4:54 AM319730.25-0.87ssw6.95--
3:54 AM3110031-0.87ssw7.82--
2:54 AM319830.5---7.82--
1:54 AM3210032-1.74sse6.95--
12:54 AM3210032-1.74sse4.34--
High: 42ºf @1:54 PM    Low: 32ºf @11:54 PM     Approx. Precipitation / Rain Total: in.
Time (PST)Temp. (ºf)Humidity (%)Dew Point (ºf)Barometer (inHG)Wind Speed (mph)Wind DirectionWind Gust (mph)1hr. Precip / Rain Total (in.)Snow Depth
11:54 PM329931.75-1.74ssw6.08--
10:54 PM3210032-2.61se5.21--
9:54 PM3210032-0.87s3.48--
8:54 PM329931.75---5.21--
7:54 PM349632.98-1.74se6.95--
6:54 PM359633.98-0.87s5.21--
5:54 PM359533.72---7.82--
4:54 PM388032.39-1.74sse6.08--
3:54 PM408034.34-3.48sse8.69--
2:54 PM427835.65-3.48se8.69--
1:54 PM427935.97-4.34se10.43--
12:54 PM418536.84-2.61se8.69--
11:54 AM389235.89-3.48ese12.17--
10:54 AM399036.32-4.34se10.43--
9:54 AM379335.17-3.48se9.56--
8:54 AM379435.44-4.34se8.69--
7:54 AM369735.23-2.61se6.08--
6:54 AM369735.23-4.34ese7.82--
5:54 AM369634.97-2.61ese8.69--
4:54 AM3510035-3.48e6.95--
3:54 AM3310033-0.87ene1.74--
2:54 AM3410034---4.34--
1:54 AM359934.75---5.21--
12:54 AM369735.23-2.61se10.43--
High: 38ºf @6:54 PM    Low: 36ºf @11:54 PM     Approx. Precipitation / Rain Total: in.
Time (PST)Temp. (ºf)Humidity (%)Dew Point (ºf)Barometer (inHG)Wind Speed (mph)Wind DirectionWind Gust (mph)1hr. Precip / Rain Total (in.)Snow Depth
11:54 PM369634.97-4.34ese9.56--
10:54 PM379435.44-4.34se9.56--
9:54 PM369534.71-5.21ese11.3--
8:54 PM369735.23-4.34se7.82--
7:54 PM379435.44-3.48se9.56--
6:54 PM389336.16-4.34se9.56--
5:54 PM389536.7-1.74ssw7.82--
Past Weather Disclaimer Note regarding "Approx. Precipitation / Rain Total"

Currently

Light Rain 40°F
29.89in
Barometer
79%
Humidity
Southeast 3.5mph
Wind
Light Rain

Past Weather Nearby

More Local Information

Bookmark and Share